Regional Weather Roundup
Issued by NWS

Home | Current Version | Previous Version | Graphics & Text | Print | Product List | Glossary On
Versions: 1 2 3 4 5 6 7 8 9 10 11 12 13 14 15 16 17 18 19 20 21 22 23 24 25 26 27 28 29 30 31 32 33 34 35 36 37 38 39 40 41 42 43 44 45 46 47 48 49 50
000
ASUS43 KLOT 310812
RWRIL

ILLINOIS REGIONAL WEATHER ROUNDUP
NATIONAL WEATHER SERVICE CHICAGO/ROMEOVILLE IL
300 AM CDT MON AUG 31 2015

NOTE: "FAIR" INDICATES FEW OR NO CLOUDS BELOW 12,000 FEET WITH NO
SIGNIFICANT WEATHER AND/OR OBSTRUCTIONS TO VISIBILITY.

* THESE STATIONS ARE NOT UNDER NWS QUALITY CONTROL. THEY ALSO MAY NOT
  REPORT WEATHER SUCH AS PRECIPITATION OR FOG.

ILZ001-002-007-009-015-016-024-310900-
NORTHWEST ILLINOIS

CITY           SKY/WX    TMP DP  RH WIND       PRES   REMARKS
MOLINE         CLEAR     62  59  90 SE3       30.02R
STERLING*        N/A    N/A N/A N/A MISG        N/A
SAVANNA*       FOG       60  58  95 N3        30.02S VSB 1/4
$$

ILZ003-004-008-010-011-017-018-310900-
NORTH CENTRAL ILLINOIS

CITY           SKY/WX    TMP DP  RH WIND       PRES   REMARKS
ROCKFORD       PTCLDY    60  58  92 CALM      30.05R FOG
FREEPORT*      FOG       57  56  99 CALM      30.05S VSB 1/4
ROCHELLE*      CLEAR     57  57  99 CALM      30.04S FOG
DE KALB*       FOG       59  59  99 CALM      30.05R VSB<1/4
PERU*          CLOUDY    65  64  96 CALM      30.04S FOG
$$

ILZ005-006-012>014-019>023-310900-
NORTHEAST ILLINOIS

CITY           SKY/WX    TMP DP  RH WIND       PRES   REMARKS
CHICAGO-OHARE  FAIR      63  63 100 CALM      30.03S FOG
CHICAGO-MIDWAY CLEAR     67  64  90 CALM      30.03S FOG
AURORA         FOG       59  58  96 CALM      30.04S VSB<1/4
LANSING*       FOG       60  60 100 CALM      30.04S VSB<1/4
JOLIET*        FOG       61  60  99 CALM      30.04R VSB<1/4
WAUKEGAN       FOG       62  62 100 SW3       30.03R VSB 1/4
DUPAGE AIRPORT FOG       59  57  93 CALM      30.03S VSB 1/4
KANKAKEE*      FOG       63  62  99 CALM      30.04S VSB 1/4
WHEELING       FOG       59  57  93 CALM      30.04S VSB 1/4
MORRIS*        PTCLDY    60  60  97 CALM      30.03S FOG
ROMEOVILLE*    FOG       61  61 100 CALM      30.04S VSB 1/4
NORTHERLY ISL    N/A     65  63  93 CALM        N/A
$$

LMZ740>746-310900-
SOUTHERN LAKE MICHIGAN

STATION/POSITION SKY/WX   TEMP    WIND        PRES    VSBY  WAVE
                          AIR SEA DIR/SP/G                  HT/PER
                          (F)     (DEG/KT/KT) (MB)    (MI)  (FT/S)
SOUTHERN BUOY              68 68  190/  6/  6 1016.7R         0
WILMETTE HARBOR            62 60  330/  4/  6   N/A           0
HARRISON CRIB              68     160/  5/  6   N/A
BURNHAM HARBOR             65        CALM       N/A
BURNS HARBOR               68     180/  3/  5 1017.6S
MICHIGAN CITY              65     110/  5/  6   N/A
MICHIGAN CITY 6N           68 71  170/  4/  6   N/A           0
ST. JOSEPH                 68 71  160/  4/  6   N/A           1
$$

ILZ025>027-034>036-040-047-049-050-058-095>099-310900-
WEST-CENTRAL ILLINOIS

CITY           SKY/WX    TMP DP  RH WIND       PRES   REMARKS
QUINCY         CLEAR     70  68  93 SE7       29.99F FOG
GALESBURG*     CLEAR     66  65  96 E3        30.02S FOG
MACOMB*        FOG       62  62  99 CALM      30.03F VSB 1
JACKSONVILLE*  CLEAR     68  66  93 SE3       30.01S FOG
PITTSFIELD*    CLEAR     67  66  95 CALM      30.02S FOG
$$

ILZ028>032-037-038-041>044-048-051>054-059>061-310900-
CENTRAL ILLINOIS

CITY           SKY/WX    TMP DP  RH WIND       PRES   REMARKS
PONTIAC        CLEAR     63  62  99 CALM      30.04S FOG
BLOOMINGTON    CLEAR     67  67 100 S3        30.05R FOG
DECATUR        CLEAR     71  67  87 S5        30.03S
PEORIA         CLEAR     68  64  87 E5        30.02S
LACON*         CLEAR     62  61  95 CALM      30.02S FOG
LINCOLN*       CLEAR     67  65  91 CALM      30.02S FOG
SPRINGFIELD    CLEAR     71  69  93 S3        30.01S
TAYLORVILLE    PTCLDY    70  68  94 S3        30.02S
$$

ILZ033-039-045-046-055>057-062-063-310900-
EAST-CENTRAL ILLINOIS

CITY           SKY/WX    TMP DP  RH WIND       PRES   REMARKS
CHAMPAIGN      CLEAR     69  65  86 SE5       30.04S FOG
RANTOUL*       PTCLDY    70  68  94 CALM      30.04R FOG
MATTOON        CLEAR     70  67  90 S6        30.04R FOG
PARIS*         CLEAR     69  68  96 SW5       30.05S
$$

ILZ079-100>102-310900-
SOUTHWEST ILLINOIS

CITY           SKY/WX    TMP DP  RH WIND       PRES   REMARKS
ALTON          CLEAR     71  69  95 S3        30.01S
BELLEVILLE     CLEAR     72  72 100 SE1       30.01R
CAHOKIA*       CLEAR     73  70  90 S3        30.01S
SPARTA*        CLEAR     71  68  90 S6        30.04S
$$

ILZ064>066-069>071-074>076-080>082-084>086-088>090-092>094-310900-
SOUTH-CENTRAL ILLINOIS

CITY           SKY/WX    TMP DP  RH WIND       PRES   REMARKS
CARBONDALE     MOCLDY    69  67  93 CALM      30.03S
CAIRO*         CLOUDY    66  66 100 CALM      30.04S
EFFINGHAM*     CLEAR     68  66  92 CALM      30.05S FOG
MARION         MOCLDY    70  68  94 CALM      30.04S
MT. VERNON     CLEAR     68  63  83 CALM      30.05S
SALEM*         MOCLDY    73  69  86 S3        30.03S
METROPOLIS*      N/A     67  67 100 CALM      30.05F FOG
$$

ILZ067-068-072-073-078-083-087-091-310900-
SOUTHEAST ILLINOIS

CITY           SKY/WX    TMP DP  RH WIND       PRES   REMARKS
LAWRENCEVILLE  CLEAR     67  66  97 SE5       30.05F
FLORA*         CLEAR     67  66  97 SE3       30.04S
FAIRFIELD*     CLEAR     68  67  96 CALM      30.04S
HARRISBURG*    MOCLDY    66  66  98 CALM      30.05S
ROBINSON*      CLEAR     64  63  96 CALM      30.06S FOG
CARMI*         PTCLDY    66  66  99 CALM      30.05S
$$

ABBREVIATIONS USED IN REMARKS
   TC - TEMPERATURE IN CELSIUS
  WCI - WIND CHILL INDEX
   HX - HEAT INDEX
  VSB - VISIBILITY
$$



USA.gov is the U.S. government's official web portal to all federal, state and local government web resources and services.